| time (UTC) | temp F | wind direction | speed MPH | gust MPH | rain 1hr in | rain 24hr in | rain mn in | humidity % | barometer mb |
| 20260902030003 | 58 | 273 | 4.0 | 11.0 | 0.00 | 0.01 | 0.00 | 100 | |
| 20260902025617 | 57 | 273 | 4.0 | 11.0 | 0.00 | 0.01 | 0.00 | 100 | |
| 20260902024503 | 57 | 278 | 2.0 | 7.0 | 0.00 | 0.01 | 0.00 | 100 | |
| 20260902023603 | 56 | 281 | 1.0 | 6.0 | 0.00 | 0.01 | 0.00 | 100 | |
| 20260902022703 | 56 | 306 | 1.0 | 4.0 | 0.00 | 0.01 | 0.00 | 100 | |
| 20260902021803 | 56 | 316 | 0.0 | 2.0 | 0.00 | 0.01 | 0.00 | 100 | |
| 20260902021118 | 55 | 316 | 0.0 | 1.0 | 0.00 | 0.01 | 0.00 | 100 | |
| 20260902020003 | 55 | 316 | 0.0 | 2.0 | 0.00 | 0.01 | 0.00 | 100 | |
| 20260902015617 | 55 | 0 | 0.0 | 0.0 | 0.00 | 0.01 | 0.00 | 100 | |
| 20260902014716 | 55 | 0 | 0.0 | 0.0 | 0.00 | 0.01 | 0.00 | 100 | |
| 20260902013603 | 56 | 0 | 0.0 | 0.0 | 0.00 | 0.01 | 0.00 | 100 | |
| 20260902012703 | 56 | 316 | 0.0 | 3.0 | 0.00 | 0.01 | 0.00 | 100 | |
| 20260902011803 | 55 | 317 | 0.0 | 4.0 | 0.00 | 0.01 | 0.00 | 100 | |
| 20260902010903 | 55 | 298 | 1.0 | 4.0 | 0.00 | 0.01 | 0.00 | 100 | |
| 20260902010003 | 56 | 285 | 1.0 | 6.0 | 0.00 | 0.01 | 0.00 | 100 | |
| 20260902005403 | 56 | 275 | 1.0 | 6.0 | 0.00 | 0.01 | 0.00 | 100 | |
| 20260902004503 | 56 | 271 | 2.0 | 7.0 | 0.00 | 0.01 | 0.00 | 100 | |
| 20260902003603 | 56 | 275 | 2.0 | 5.0 | 0.00 | 0.01 | 0.00 | 100 | |
| 20260902002703 | 56 | 275 | 3.0 | 10.0 | 0.00 | 0.01 | 0.00 | 100 | |
| 20260902002018 | 56 | 275 | 3.0 | 10.0 | 0.00 | 0.01 | 0.00 | 100 | |
| 20260902000903 | 56 | 283 | 3.0 | 10.0 | 0.00 | 0.01 | 0.00 | 100 | |
| 20260902000218 | 56 | 278 | 3.0 | 7.0 | 0.00 | 0.01 | 0.00 | 100 | |
| 20260901235403 | 56 | 268 | 3.0 | 7.0 | 0.00 | 0.01 | 0.00 | 100 | |
| 20260901234503 | 56 | 274 | 2.0 | 8.0 | 0.00 | 0.01 | 0.00 | 100 | |
| 20260901233603 | 56 | 270 | 2.0 | 5.0 | 0.00 | 0.01 | 0.00 | 100 | |
| 20260901232703 | 56 | 271 | 3.0 | 6.0 | 0.00 | 0.01 | 0.00 | 100 | |
| 20260901231803 | 57 | 275 | 5.0 | 9.0 | 0.00 | 0.01 | 0.00 | 100 | |
| 20260901230903 | 56 | 272 | 2.0 | 9.0 | 0.00 | 0.01 | 0.00 | 100 | |
| 20260901230003 | 56 | 280 | 2.0 | 7.0 | 0.00 | 0.01 | 0.00 | 100 | |
| 20260901225616 | 56 | 286 | 0.0 | 7.0 | 0.00 | 0.01 | 0.00 | 100 | |
| 20260901224503 | 57 | 282 | 2.0 | 8.0 | 0.00 | 0.01 | 0.00 | 100 | |
| 20260901223603 | 57 | 283 | 2.0 | 10.0 | 0.00 | 0.01 | 0.00 | 100 | |
| 20260901222703 | 57 | 281 | 3.0 | 7.0 | 0.00 | 0.01 | 0.00 | 100 | |
| 20260901221803 | 57 | 295 | 2.0 | 7.0 | 0.00 | 0.01 | 0.00 | 100 | |
| 20260901220903 | 58 | 270 | 3.0 | 10.0 | 0.00 | 0.01 | 0.00 | 99 | |
| 20260901220003 | 58 | 270 | 5.0 | 11.0 | 0.00 | 0.01 | 0.00 | 99 | |
| 20260901215403 | 58 | 274 | 6.0 | 15.0 | 0.00 | 0.01 | 0.01 | 99 | |
| 20260901214503 | 57 | 277 | 4.0 | 12.0 | 0.00 | 0.01 | 0.01 | 99 | |
| 20260901213603 | 57 | 281 | 3.0 | 7.0 | 0.00 | 0.01 | 0.01 | 96 | |
| 20260901212703 | 57 | 290 | 3.0 | 9.0 | 0.00 | 0.01 | 0.01 | 94 | |
| 20260901211803 | 57 | 289 | 1.0 | 5.0 | 0.00 | 0.01 | 0.01 | 93 | |
| 20260901210903 | 57 | 281 | 1.0 | 3.0 | 0.00 | 0.01 | 0.01 | 91 | |
| 20260901210216 | 57 | 289 | 0.0 | 3.0 | 0.00 | 0.01 | 0.01 | 90 | |
| 20260901205403 | 57 | 293 | 0.0 | 2.0 | 0.00 | 0.01 | 0.01 | 89 | |
| 20260901204503 | 57 | 285 | 0.0 | 3.0 | 0.00 | 0.01 | 0.01 | 88 | |
| 20260901203603 | 57 | 293 | 0.0 | 3.0 | 0.00 | 0.01 | 0.01 | 87 | |
| 20260901202917 | 57 | 302 | 0.0 | 3.0 | 0.00 | 0.01 | 0.01 | 87 | |
| 20260901201803 | 57 | 303 | 0.0 | 3.0 | 0.00 | 0.01 | 0.01 | 87 | |
| 20260901200903 | 57 | 287 | 0.0 | 3.0 | 0.00 | 0.01 | 0.01 | 86 | |
| 20260901200215 | 58 | 286 | 0.0 | 3.0 | 0.00 | 0.01 | 0.01 | 86 | |
| 20260901195619 | 58 | 286 | 1.0 | 3.0 | 0.00 | 0.01 | 0.01 | 85 | |
| 20260901194503 | 58 | 285 | 0.0 | 3.0 | 0.00 | 0.01 | 0.01 | 85 | |
| 20260901193818 | 58 | 288 | 0.0 | 4.0 | 0.00 | 0.01 | 0.01 | 84 | |
| 20260901192703 | 59 | 280 | 1.0 | 4.0 | 0.00 | 0.01 | 0.01 | 83 | |
| 20260901191803 | 59 | 282 | 1.0 | 5.0 | 0.00 | 0.01 | 0.01 | 83 | |
| 20260901190903 | 59 | 284 | 1.0 | 4.0 | 0.00 | 0.01 | 0.01 | 82 | |
| 20260901190003 | 59 | 289 | 0.0 | 3.0 | 0.00 | 0.01 | 0.01 | 81 | |
| 20260901185403 | 60 | 289 | 0.0 | 3.0 | 0.00 | 0.01 | 0.01 | 81 | |
| 20260901184503 | 60 | 289 | 0.0 | 1.0 | 0.00 | 0.01 | 0.01 | 80 | |
| 20260901183603 | 60 | 289 | 0.0 | 3.0 | 0.00 | 0.01 | 0.01 | 80 | |
| 20260901182703 | 61 | 285 | 0.0 | 3.0 | 0.00 | 0.01 | 0.01 | 78 | |
| 20260901181803 | 62 | 286 | 1.0 | 4.0 | 0.00 | 0.01 | 0.01 | 77 | |
| 20260901180903 | 62 | 287 | 1.0 | 3.0 | 0.00 | 0.01 | 0.01 | 75 | |
| 20260901180219 | 62 | 287 | 2.0 | 4.0 | 0.00 | 0.01 | 0.01 | 75 | |
| 20260901175403 | 63 | 281 | 2.0 | 6.0 | 0.00 | 0.01 | 0.01 | 74 | |
| 20260901174503 | 64 | 285 | 1.0 | 4.0 | 0.00 | 0.01 | 0.01 | 74 | |
| 20260901173603 | 64 | 270 | 0.0 | 3.0 | 0.00 | 0.01 | 0.01 | 74 | |
| 20260901172703 | 65 | 271 | 1.0 | 3.0 | 0.00 | 0.01 | 0.01 | 72 | |
| 20260901171803 | 66 | 318 | 0.0 | 3.0 | 0.00 | 0.01 | 0.01 | 71 | |
| 20260901170903 | 67 | 318 | 0.0 | 3.0 | 0.00 | 0.01 | 0.01 | 67 | |
| 20260901170003 | 68 | 318 | 1.0 | 3.0 | 0.00 | 0.01 | 0.01 | 66 | |
| 20260901165403 | 68 | 318 | 1.0 | 3.0 | 0.00 | 0.01 | 0.01 | 64 | |
| 20260901164717 | 68 | 318 | 0.0 | 2.0 | 0.00 | 0.01 | 0.01 | 64 | |
| 20260901163603 | 69 | 318 | 0.0 | 3.0 | 0.00 | 0.01 | 0.01 | 65 | |
| 20260901162703 | 70 | 291 | 1.0 | 3.0 | 0.00 | 0.01 | 0.01 | 65 | |
| 20260901161803 | 70 | 243 | 0.0 | 3.0 | 0.00 | 0.01 | 0.01 | 65 | |
| 20260901160903 | 69 | 296 | 1.0 | 2.0 | 0.00 | 0.01 | 0.01 | 64 | |
| 20260901160003 | 69 | 299 | 1.0 | 3.0 | 0.00 | 0.01 | 0.01 | 64 | |
| 20260901155403 | 68 | 299 | 0.0 | 1.0 | 0.00 | 0.01 | 0.01 | 64 | |
| 20260901154503 | 67 | 299 | 0.0 | 1.0 | 0.00 | 0.01 | 0.01 | 71 | |
| 20260901153816 | 66 | 0 | 0.0 | 0.0 | 0.00 | 0.01 | 0.01 | 74 | |
| 20260901152703 | 66 | 0 | 0.0 | 0.0 | 0.00 | 0.01 | 0.01 | 74 | |
| 20260901151803 | 67 | 0 | 0.0 | 0.0 | 0.00 | 0.01 | 0.01 | 71 | |
| 20260901150903 | 67 | 299 | 0.0 | 1.0 | 0.00 | 0.01 | 0.01 | 71 | |
| 20260901150003 | 67 | 299 | 0.0 | 2.0 | 0.00 | 0.01 | 0.01 | 67 | |
| 20260901145403 | 67 | 0 | 0.0 | 0.0 | 0.00 | 0.01 | 0.01 | 69 | |
| 20260901144503 | 68 | 0 | 0.0 | 0.0 | 0.00 | 0.01 | 0.01 | 67 | |
| 20260901143603 | 68 | 299 | 0.0 | 2.0 | 0.00 | 0.01 | 0.01 | 65 | |
| 20260901142703 | 68 | 299 | 0.0 | 1.0 | 0.00 | 0.01 | 0.01 | 65 | |
| 20260901141803 | 68 | 0 | 0.0 | 0.0 | 0.00 | 0.01 | 0.01 | 65 | |
| 20260901140903 | 68 | 299 | 1.0 | 3.0 | 0.00 | 0.01 | 0.01 | 65 | |
| 20260901140003 | 69 | 292 | 1.0 | 3.0 | 0.00 | 0.01 | 0.01 | 62 | |
| 20260901135403 | 69 | 282 | 3.0 | 6.0 | 0.00 | 0.01 | 0.01 | 60 | |
| 20260901134716 | 70 | 275 | 2.0 | 6.0 | 0.00 | 0.01 | 0.01 | 57 | |
| 20260901133603 | 68 | 281 | 0.0 | 3.0 | 0.00 | 0.01 | 0.01 | 64 | |
| 20260901132919 | 68 | 281 | 0.0 | 2.0 | 0.00 | 0.01 | 0.01 | 64 | |
| 20260901131803 | 68 | 281 | 0.0 | 1.0 | 0.00 | 0.01 | 0.01 | 60 | |
| 20260901130903 | 68 | 281 | 1.0 | 3.0 | 0.00 | 0.01 | 0.01 | 58 | |
| 20260901130003 | 69 | 271 | 2.0 | 6.0 | 0.00 | 0.01 | 0.01 | 57 | |
| 20260901125616 | 70 | 263 | 2.0 | 6.0 | 0.00 | 0.01 | 0.01 | 55 | |
| 20260901124503 | 71 | 136 | 1.0 | 4.0 | 0.00 | 0.01 | 0.01 | 57 | |
| 20260901123603 | 70 | 106 | 0.0 | 3.0 | 0.00 | 0.01 | 0.01 | 61 | |
| 20260901122918 | 70 | 113 | 1.0 | 3.0 | 0.00 | 0.01 | 0.01 | 60 | |
| 20260901121803 | 72 | 125 | 1.0 | 4.0 | 0.00 | 0.01 | 0.01 | 57 | |
| 20260901120903 | 71 | 100 | 2.0 | 6.0 | 0.00 | 0.01 | 0.01 | 58 | |
| 20260901120003 | 70 | 135 | 1.0 | 6.0 | 0.00 | 0.01 | 0.01 | 61 | |
| 20260901115403 | 70 | 129 | 2.0 | 6.0 | 0.00 | 0.01 | 0.01 | 62 | |
| 20260901114503 | 69 | 30 | 1.0 | 3.0 | 0.00 | 0.01 | 0.01 | 62 | |
| 20260901113603 | 68 | 10 | 1.0 | 3.0 | 0.00 | 0.01 | 0.01 | 65 | |
| 20260901112703 | 68 | 103 | 1.0 | 4.0 | 0.00 | 0.01 | 0.01 | 66 | |
| 20260901111803 | 68 | 183 | 1.0 | 5.0 | 0.00 | 0.01 | 0.01 | 66 | |
| 20260901110903 | 69 | 227 | 1.0 | 3.0 | 0.00 | 0.01 | 0.01 | 65 | |
| 20260901110003 | 68 | 255 | 1.0 | 3.0 | 0.00 | 0.01 | 0.01 | 67 | |
| 20260901105616 | 68 | 265 | 1.0 | 3.0 | 0.00 | 0.01 | 0.01 | 69 | |
| 20260901104503 | 66 | 294 | 0.0 | 2.0 | 0.00 | 0.01 | 0.01 | 74 | |
| 20260901103603 | 66 | 294 | 0.0 | 2.0 | 0.00 | 0.01 | 0.01 | 72 | |
| 20260901102703 | 66 | 294 | 2.0 | 3.0 | 0.00 | 0.01 | 0.01 | 77 | |
| 20260901101803 | 66 | 294 | 1.0 | 3.0 | 0.00 | 0.01 | 0.01 | 77 | |
| 20260901100903 | 66 | 288 | 2.0 | 5.0 | 0.00 | 0.01 | 0.01 | 78 | |
| 20260901100003 | 66 | 293 | 1.0 | 5.0 | 0.00 | 0.01 | 0.01 | 77 | |
| 20260901095619 | 65 | 292 | 1.0 | 3.0 | 0.00 | 0.01 | 0.01 | 78 | |
| 20260901094719 | 64 | 290 | 2.0 | 3.0 | 0.00 | 0.01 | 0.01 | 81 | |
| 20260901093603 | 64 | 290 | 1.0 | 3.0 | 0.00 | 0.01 | 0.01 | 83 | |
| 20260901092703 | 64 | 290 | 1.0 | 3.0 | 0.00 | 0.01 | 0.01 | 83 | |
| 20260901091803 | 65 | 324 | 2.0 | 4.0 | 0.00 | 0.01 | 0.01 | 82 | |
| 20260901091116 | 65 | 353 | 1.0 | 3.0 | 0.00 | 0.01 | 0.01 | 82 | |
| 20260901090003 | 64 | 324 | 2.0 | 4.0 | 0.00 | 0.01 | 0.01 | 86 | |
| 20260901085403 | 63 | 289 | 2.0 | 4.0 | 0.00 | 0.01 | 0.01 | 88 | |
| 20260901084503 | 63 | 261 | 1.0 | 4.0 | 0.00 | 0.01 | 0.01 | 91 | |
| 20260901083603 | 62 | 287 | 1.0 | 3.0 | 0.00 | 0.01 | 0.01 | 97 | |
| 20260901082703 | 61 | 249 | 0.0 | 3.0 | 0.00 | 0.01 | 0.01 | 100 | |
| 20260901082016 | 61 | 254 | 3.0 | 6.0 | 0.00 | 0.01 | 0.01 | 100 | |
| 20260901080903 | 60 | 251 | 2.0 | 6.0 | 0.00 | 0.01 | 0.01 | 100 | |
| 20260901080219 | 60 | 271 | 1.0 | 5.0 | 0.00 | 0.01 | 0.01 | 100 | |
| 20260901075403 | 59 | 294 | 1.0 | 4.0 | 0.00 | 0.01 | 0.01 | 100 | |
| 20260901074503 | 58 | 292 | 2.0 | 5.0 | 0.00 | 0.01 | 0.01 | 100 | |
| 20260901073603 | 57 | 297 | 1.0 | 4.0 | 0.00 | 0.01 | 0.01 | 100 | |
| 20260901072703 | 57 | 292 | 0.0 | 4.0 | 0.00 | 0.01 | 0.01 | 100 | |
| 20260901071803 | 56 | 302 | 0.0 | 3.0 | 0.00 | 0.01 | 0.01 | 100 | |
| 20260901070903 | 56 | 302 | 0.0 | 1.0 | 0.00 | 0.01 | 0.01 | 100 | |
| 20260901070003 | 55 | 0 | 0.0 | 0.0 | 0.00 | 0.01 | 0.01 | 100 | |
| 20260901065618 | 54 | 0 | 0.0 | 0.0 | 0.00 | 0.01 | 0.01 | 100 | |
| 20260901064503 | 54 | 302 | 0.0 | 2.0 | 0.00 | 0.01 | 0.01 | 100 | |
| 20260901063603 | 53 | 302 | 0.0 | 2.0 | 0.00 | 0.01 | 0.01 | 100 | |
| 20260901062916 | 53 | 0 | 0.0 | 0.0 | 0.00 | 0.01 | 0.01 | 100 | |
| 20260901061803 | 52 | 0 | 0.0 | 0.0 | 0.00 | 0.01 | 0.01 | 100 | |
| 20260901060903 | 52 | 0 | 0.0 | 0.0 | 0.00 | 0.01 | 0.01 | 100 | |
| 20260901060003 | 51 | 0 | 0.0 | 0.0 | 0.00 | 0.02 | 0.01 | 100 | |
| 20260901055403 | 51 | 0 | 0.0 | 0.0 | 0.00 | 0.02 | 0.01 | 100 | |
| 20260901054503 | 51 | 0 | 0.0 | 0.0 | 0.00 | 0.02 | 0.01 | 100 | |
| 20260901053603 | 51 | 302 | 0.0 | 2.0 | 0.00 | 0.02 | 0.01 | 100 | |
| 20260901052703 | 50 | 0 | 0.0 | 0.0 | 0.00 | 0.02 | 0.01 | 100 | |
| 20260901051803 | 50 | 0 | 0.0 | 0.0 | 0.00 | 0.02 | 0.01 | 100 | |
| 20260901050903 | 50 | 0 | 0.0 | 0.0 | 0.00 | 0.02 | 0.01 | 100 | |
| 20260901050003 | 50 | 0 | 0.0 | 0.0 | 0.00 | 0.02 | 0.01 | 100 | |
| 20260901045403 | 50 | 0 | 0.0 | 0.0 | 0.00 | 0.02 | 0.01 | 100 | |
| 20260901044505 | 49 | 302 | 0.0 | 1.0 | 0.01 | 0.02 | 0.01 | 100 | |
| 20260901043603 | 49 | 0 | 0.0 | 0.0 | 0.01 | 0.02 | 0.01 | 100 | |
| 20260901042703 | 49 | 0 | 0.0 | 0.0 | 0.01 | 0.02 | 0.01 | 100 | |
| 20260901042019 | 49 | 0 | 0.0 | 0.0 | 0.01 | 0.02 | 0.01 | 100 | |
| 20260901040903 | 50 | 0 | 0.0 | 0.0 | 0.01 | 0.02 | 0.01 | 100 | |
| 20260901040003 | 50 | 0 | 0.0 | 0.0 | 0.01 | 0.02 | 0.01 | 100 | |
| 20260901035403 | 50 | 0 | 0.0 | 0.0 | 0.01 | 0.02 | 0.01 | 100 | |
| 20260901034503 | 50 | 0 | 0.0 | 0.0 | 0.00 | 0.01 | 0.00 | 100 | |
| 20260901033816 | 50 | 0 | 0.0 | 0.0 | 0.00 | 0.01 | 0.00 | 100 | |
| 20260901032919 | 50 | 302 | 0.0 | 1.0 | 0.00 | 0.01 | 0.00 | 100 | |
| 20260901031803 | 50 | 302 | 0.0 | 1.0 | 0.00 | 0.01 | 0.00 | 100 | |
| 20260901030903 | 50 | 0 | 0.0 | 0.0 | 0.00 | 0.01 | 0.00 | 100 |